Tracking 20083 objects as of 8-Dec-2019
HD Live streaming from Space Station
objects crossing your sky now

FENGYUN 1C DEB

Track FENGYUN 1C DEB now!
10-day predictions


NORAD ID: 31680
Int'l Code: 1999-025CCN
Perigee: 527.4 km
Apogee: 776.4 km
Inclination: 99.8 °
Period: 97.6 minutes
Semi major axis: 7022 km
RCS: 0.0075 m2 (small)
Launch date: May 10, 1999
Source: People's Republic of China (PRC)
Launch site: Taiyaun Space Center, China (TSC)

Note: This is SATELLITE DEBRIS
aabbcc
Your satellite tracking list
Your tracking list is empty




NASA's NSSDC Master Catalog

Two Line Element Set (TLE):
1 31680U 99025CCN 19338.55805535  .00000342  00000-0  50072-4 0  9990
2 31680  99.8407 249.2417 0177300 257.7323 100.3978 14.75116869675041
Source of the keplerian elements: AFSPC